Estación Meteorológica de la Universidad de Murcia
Estación Meteorológica de la Universidad de Murcia
Universidad de Murcia
 

Temperatura y Humedad del sueloTemperatura y Humedad del suelo

 

Temperatura del suelo máxima: 29,2 ºC a las 16:24:00 del día 03/10/2022
Temperatura del suelo mínima: 17,6 ºC a las 02:51:00 del día 03/10/2022
Humedad del suelo máxima: 61,4 % a las 00:07:00 del día 03/10/2022
Humedad del suelo mínima: 59,2 % a las 23:38:00 del día 03/10/2022

||Temperatura del suelo máxima últimos meses|| ---- ||Temperatura del suelo mínima últimos meses||

----||Humedad del suelo máxima últimos meses|| ---- ||Humedad del suelo mínima últimos meses||


Temperatura del suelo máxima

  • 1 - 29,2 ºC del día 03/10/2022
  • 2 - 28,7 ºC del día 02/10/2022
  • 3 - 29,7 ºC del día 01/10/2022
  • 4 - 26,4 ºC del día 30/09/2022
  • 5 - 29,3 ºC del día 29/09/2022
  • 6 - 31,6 ºC del día 28/09/2022
  • 7 - 30,5 ºC del día 27/09/2022
  • 8 - 30,3 ºC del día 26/09/2022
  • 9 - 30,4 ºC del día 25/09/2022
  • 10 - 34,5 ºC del día 24/09/2022
  • 11 - 32,8 ºC del día 23/09/2022
  • 12 - 33,3 ºC del día 22/09/2022
  • 13 - 29,5 ºC del día 21/09/2022
  • 14 - 32,2 ºC del día 20/09/2022
  • 15 - 31,3 ºC del día 19/09/2022
  • 16 - 31 ºC del día 18/09/2022
  • 17 - 33,8 ºC del día 17/09/2022
  • 18 - 33,6 ºC del día 16/09/2022
  • 19 - 33,5 ºC del día 15/09/2022
  • 20 - 32,3 ºC del día 14/09/2022
  • 21 - 27,9 ºC del día 13/09/2022
  • 22 - 34,8 ºC del día 12/09/2022
  • 23 - 34,6 ºC del día 11/09/2022
  • 24 - 34,7 ºC del día 10/09/2022
  • 25 - 35,6 ºC del día 09/09/2022
  • 26 - 35,4 ºC del día 08/09/2022
  • 27 - 35,5 ºC del día 07/09/2022
  • 28 - 35,3 ºC del día 06/09/2022
  • 29 - 35,3 ºC del día 05/09/2022
  • 30 - 35,1 ºC del día 04/09/2022
  • 31 - 34,8 ºC del día 03/09/2022
  • 32 - 35,5 ºC del día 02/09/2022
  • 33 - 35,6 ºC del día 01/09/2022
  • 34 - 36 ºC del día 31/08/2022
  • 35 - 36 ºC del día 30/08/2022
  • 36 - 32,7 ºC del día 29/08/2022
  • 37 - 34,2 ºC del día 28/08/2022
  • 38 - 35,4 ºC del día 27/08/2022
  • 39 - 35,5 ºC del día 26/08/2022
  • 40 - 36,3 ºC del día 25/08/2022
  • 41 - 36,7 ºC del día 24/08/2022
  • 42 - 36,4 ºC del día 23/08/2022
  • 43 - 35,7 ºC del día 22/08/2022
  • 44 - 40,7 ºC del día 21/08/2022
  • 45 - 36,4 ºC del día 20/08/2022
  • 46 - 36,2 ºC del día 19/08/2022
  • 47 - 36,4 ºC del día 18/08/2022
  • 48 - 37,6 ºC del día 17/08/2022
  • 49 - 38,7 ºC del día 16/08/2022
  • 50 - 39,1 ºC del día 15/08/2022
  • 51 - 39,9 ºC del día 14/08/2022
  • 52 - 39 ºC del día 13/08/2022
  • 53 - 39,4 ºC del día 12/08/2022
  • 54 - 37,9 ºC del día 11/08/2022
  • 55 - 36 ºC del día 10/08/2022
  • 56 - 37,3 ºC del día 09/08/2022
  • 57 - 37,3 ºC del día 08/08/2022
  • 58 - 38,2 ºC del día 07/08/2022
  • 59 - 37,8 ºC del día 06/08/2022

||Volver al inicio de la página||


Temperatura del suelo mínima

  • 1 - 17,6 ºC del día 03/10/2022
  • 2 - 13 ºC del día 02/10/2022
  • 3 - 11,8 ºC del día 01/10/2022
  • 4 - 14,3 ºC del día 30/09/2022
  • 5 - 15,2 ºC del día 29/09/2022
  • 6 - 14,8 ºC del día 28/09/2022
  • 7 - 15,4 ºC del día 27/09/2022
  • 8 - 17,2 ºC del día 26/09/2022
  • 9 - 19,9 ºC del día 25/09/2022
  • 10 - 18,4 ºC del día 24/09/2022
  • 11 - 18,2 ºC del día 23/09/2022
  • 12 - 18,9 ºC del día 22/09/2022
  • 13 - 19,5 ºC del día 21/09/2022
  • 14 - 17,1 ºC del día 20/09/2022
  • 15 - 20 ºC del día 19/09/2022
  • 16 - 21,6 ºC del día 18/09/2022
  • 17 - 19 ºC del día 17/09/2022
  • 18 - 19 ºC del día 16/09/2022
  • 19 - 17,6 ºC del día 15/09/2022
  • 20 - 21,1 ºC del día 14/09/2022
  • 21 - 24 ºC del día 13/09/2022
  • 22 - 21,4 ºC del día 12/09/2022
  • 23 - 20,7 ºC del día 11/09/2022
  • 24 - 18,8 ºC del día 10/09/2022
  • 25 - 18,5 ºC del día 09/09/2022
  • 26 - 17,4 ºC del día 08/09/2022
  • 27 - 18 ºC del día 07/09/2022
  • 28 - 20,3 ºC del día 06/09/2022
  • 29 - 20,3 ºC del día 05/09/2022
  • 30 - 18,2 ºC del día 04/09/2022
  • 31 - 19,8 ºC del día 03/09/2022
  • 32 - 21,9 ºC del día 02/09/2022
  • 33 - 21,5 ºC del día 01/09/2022
  • 34 - 21,8 ºC del día 31/08/2022
  • 35 - 22,4 ºC del día 30/08/2022
  • 36 - 22,7 ºC del día 29/08/2022
  • 37 - 22,4 ºC del día 28/08/2022
  • 38 - 20,8 ºC del día 27/08/2022
  • 39 - 22,5 ºC del día 26/08/2022
  • 40 - 22,4 ºC del día 25/08/2022
  • 41 - 21,3 ºC del día 24/08/2022
  • 42 - 22,4 ºC del día 23/08/2022
  • 43 - 21,6 ºC del día 22/08/2022
  • 44 - 20,1 ºC del día 21/08/2022
  • 45 - 19,8 ºC del día 20/08/2022
  • 46 - 21,4 ºC del día 19/08/2022
  • 47 - 19,9 ºC del día 18/08/2022
  • 48 - 20,8 ºC del día 17/08/2022
  • 49 - 19,2 ºC del día 16/08/2022
  • 50 - 20,3 ºC del día 15/08/2022
  • 51 - 21,3 ºC del día 14/08/2022
  • 52 - 23,5 ºC del día 13/08/2022
  • 53 - 20,9 ºC del día 12/08/2022
  • 54 - 21,1 ºC del día 11/08/2022
  • 55 - 22,9 ºC del día 10/08/2022
  • 56 - 22,7 ºC del día 09/08/2022
  • 57 - 21,3 ºC del día 08/08/2022
  • 58 - 19,5 ºC del día 07/08/2022
  • 59 - 20,6 ºC del día 06/08/2022

||Volver al inicio de la página||


Humedad del suelo máxima

  • 1 - 61,4 % del día 03/10/2022
  • 2 - 62,7 % del día 02/10/2022
  • 3 - 63,7 % del día 01/10/2022
  • 4 - 64,7 % del día 30/09/2022
  • 5 - 66,3 % del día 29/09/2022
  • 6 - 69,5 % del día 28/09/2022
  • 7 - 72,1 % del día 27/09/2022
  • 8 - 75,3 % del día 26/09/2022
  • 9 - 73,7 % del día 25/09/2022
  • 10 - 47,1 % del día 24/09/2022
  • 11 - 47,2 % del día 23/09/2022
  • 12 - 47,1 % del día 22/09/2022
  • 13 - 46,9 % del día 21/09/2022
  • 14 - 47,3 % del día 20/09/2022
  • 15 - 47,2 % del día 19/09/2022
  • 16 - 47,1 % del día 18/09/2022
  • 17 - 47,5 % del día 17/09/2022
  • 18 - 47,4 % del día 16/09/2022
  • 19 - 48,2 % del día 15/09/2022
  • 20 - 47 % del día 14/09/2022
  • 21 - 47,4 % del día 13/09/2022
  • 22 - 47,8 % del día 12/09/2022
  • 23 - 48 % del día 11/09/2022
  • 24 - 48 % del día 10/09/2022
  • 25 - 48,1 % del día 09/09/2022
  • 26 - 48,3 % del día 08/09/2022
  • 27 - 48,1 % del día 07/09/2022
  • 28 - 48,6 % del día 06/09/2022
  • 29 - 48,6 % del día 05/09/2022
  • 30 - 48,1 % del día 04/09/2022
  • 31 - 48,1 % del día 03/09/2022
  • 32 - 48,4 % del día 02/09/2022
  • 33 - 48,3 % del día 01/09/2022
  • 34 - 48,2 % del día 31/08/2022
  • 35 - 48 % del día 30/08/2022
  • 36 - 47,9 % del día 29/08/2022
  • 37 - 48,8 % del día 28/08/2022
  • 38 - 48,9 % del día 27/08/2022
  • 39 - 48,5 % del día 26/08/2022
  • 40 - 48,5 % del día 25/08/2022
  • 41 - 48,7 % del día 24/08/2022
  • 42 - 48,9 % del día 23/08/2022
  • 43 - 49,2 % del día 22/08/2022
  • 44 - 49,1 % del día 21/08/2022
  • 45 - 49,2 % del día 20/08/2022
  • 46 - 49,3 % del día 19/08/2022
  • 47 - 49,5 % del día 18/08/2022
  • 48 - 49,7 % del día 17/08/2022
  • 49 - 49,9 % del día 16/08/2022
  • 50 - 50,1 % del día 15/08/2022
  • 51 - 50,5 % del día 14/08/2022
  • 52 - 50,5 % del día 13/08/2022
  • 53 - 50,5 % del día 12/08/2022
  • 54 - 50,8 % del día 11/08/2022
  • 55 - 50,8 % del día 10/08/2022
  • 56 - 51 % del día 09/08/2022
  • 57 - 51,1 % del día 08/08/2022
  • 58 - 51,4 % del día 07/08/2022
  • 59 - 51,6 % del día 06/08/2022

||Volver al inicio de la página||


Humedad del suelo mínima

  • 1 - 59,2 % del día 03/10/2022
  • 2 - 60 % del día 02/10/2022
  • 3 - 61,3 % del día 01/10/2022
  • 4 - 62,4 % del día 30/09/2022
  • 5 - 63,2 % del día 29/09/2022
  • 6 - 65,1 % del día 28/09/2022
  • 7 - 68,2 % del día 27/09/2022
  • 8 - 68,6 % del día 26/09/2022
  • 9 - 44,7 % del día 25/09/2022
  • 10 - 44,5 % del día 24/09/2022
  • 11 - 44,5 % del día 23/09/2022
  • 12 - 44,6 % del día 22/09/2022
  • 13 - 44,9 % del día 21/09/2022
  • 14 - 44,7 % del día 20/09/2022
  • 15 - 44,8 % del día 19/09/2022
  • 16 - 45,2 % del día 18/09/2022
  • 17 - 44,7 % del día 17/09/2022
  • 18 - 44,8 % del día 16/09/2022
  • 19 - 44,7 % del día 15/09/2022
  • 20 - 45,2 % del día 14/09/2022
  • 21 - 45,4 % del día 13/09/2022
  • 22 - 45,2 % del día 12/09/2022
  • 23 - 45,3 % del día 11/09/2022
  • 24 - 45,3 % del día 10/09/2022
  • 25 - 45,3 % del día 09/09/2022
  • 26 - 45,1 % del día 08/09/2022
  • 27 - 45,4 % del día 07/09/2022
  • 28 - 45,5 % del día 06/09/2022
  • 29 - 45,5 % del día 05/09/2022
  • 30 - 45,4 % del día 04/09/2022
  • 31 - 45,5 % del día 03/09/2022
  • 32 - 45,8 % del día 02/09/2022
  • 33 - 45,6 % del día 01/09/2022
  • 34 - 45,8 % del día 31/08/2022
  • 35 - 45,7 % del día 30/08/2022
  • 36 - 45,9 % del día 29/08/2022
  • 37 - 46 % del día 28/08/2022
  • 38 - 45,9 % del día 27/08/2022
  • 39 - 46 % del día 26/08/2022
  • 40 - 46,3 % del día 25/08/2022
  • 41 - 46,4 % del día 24/08/2022
  • 42 - 46,4 % del día 23/08/2022
  • 43 - 46,6 % del día 22/08/2022
  • 44 - 46,6 % del día 21/08/2022
  • 45 - 46,6 % del día 20/08/2022
  • 46 - 46,9 % del día 19/08/2022
  • 47 - 46,9 % del día 18/08/2022
  • 48 - 47,1 % del día 17/08/2022
  • 49 - 47,4 % del día 16/08/2022
  • 50 - 47,7 % del día 15/08/2022
  • 51 - 47,8 % del día 14/08/2022
  • 52 - 48,1 % del día 13/08/2022
  • 53 - 48,1 % del día 12/08/2022
  • 54 - 48,1 % del día 11/08/2022
  • 55 - 48,5 % del día 10/08/2022
  • 56 - 48,6 % del día 09/08/2022
  • 57 - 48,6 % del día 08/08/2022
  • 58 - 48,8 % del día 07/08/2022
  • 59 - 49 % del día 06/08/2022

 

|| Temperatura Ambiente|| Humedad relativa|| Velocidad y dirección del viento|| Precipitación|| Radiación Solar Global y PAR|| Presión atmosférica|| Más información|| Volver a la página principal|| Volver al inicio de la página||


Estación Meteorológica de la Universidad de Murcia
http://estacion.um.es/
Informacion actualizada a: 05/10/2022 a las 13:43:00